Regional Weather Roundup
Issued by NWS

Home | Current Version | Previous Version | Graphics & Text | Print | Product List | Glossary On
Versions: 1 2 3 4 5 6 7 8 9 10 11 12 13 14 15 16 17 18 19 20 21 22 23 24 25 26 27 28 29 30 31 32 33 34 35 36 37 38 39 40 41 42 43 44 45 46 47 48 49 50
000
ASUS43 KMKX 261300
RWRWI

WISCONSIN REGIONAL WEATHER ROUNDUP
NATIONAL WEATHER SERVICE MILWAUKEE/SULLIVAN WI
800 AM CDT SAT JUL 26 2014

NOTE: "FAIR" INDICATES FEW OR NO CLOUDS BELOW 12,000 FEET WITH NO
SIGNIFICANT WEATHER AND/OR OBSTRUCTIONS TO VISIBILITY.

WIZ001-002-006>008-014>016-023>028-261400-
NORTHWEST WISCONSIN

CITY           SKY/WX    TMP DP  RH WIND       PRES   REMARKS
SUPERIOR ARPT  SUNNY     69  64  82 W7        29.78R
ASHLAND        MOSUNNY   73  67  81 W8        29.78R
HAYWARD        CLOUDY    70  67  90 VRB5      29.81R
SIREN          SUNNY     70  66  88 NW8       29.81S
RICE LAKE      CLOUDY    71  68  91 CALM      29.83S FOG
LADYSMITH      CLOUDY    69  68  96 SW7       29.84R FOG
EAU CLAIRE     NOT AVBL
MENOMONIE      CLOUDY    72  69  91 SW5       29.83R
NEW RICHMOND   PTSUNNY   71  70  97 W5        29.84R FOG
OSCEOLA        PTSUNNY   70  70 100 W3        29.86R FOG
$$

WIZ003>005-009-010-017-018-261400-
NORTH CENTRAL WISCONSIN

CITY           SKY/WX    TMP DP  RH WIND       PRES   REMARKS
WOODRUFF       CLOUDY    67  65  92 SW3       29.81S FOG
RHINELANDER    FOG       65  65 100 W7        29.82S VSB 1/2
EAGLE RIVER    LGT RAIN  65  65 100 W8        29.80S VSB 3/4
LAND O LAKES   CLOUDY    65  65  99 CALM      29.81R FOG
PHILLIPS       CLOUDY    66  66 100 SW6       29.81S FOG
TOMAHAWK       FOG       65  64  96 CALM      29.83S VSB 3/4
MEDFORD        FOG       65  65  99 SW3       29.84R VSB 1/4
MERRILL        CLOUDY    66  66 100 SW5       29.82F FOG
$$

WIZ029-030-035-036-043>047-261400-
CENTRAL WISCONSIN

CITY           SKY/WX    TMP DP  RH WIND       PRES   REMARKS
WAUSAU         CLOUDY    67  65  93 SW8       29.82S FOG
MOSINEE        CLOUDY    64  64 100 SW8       29.84S FOG
MARSHFIELD     CLOUDY    67  66  97 SW7       29.83S FOG
STEVENS POINT  CLOUDY    64  62  91 SW5       29.84S
WAUPACA        CLOUDY    68  65  90 SW5       29.84R
WAUTOMA        NOT AVBL
WISC RAPIDS    CLOUDY    69  64  84 W7        29.85R
CAMP DOUGLAS   CLOUDY    68  66  94 SW6       29.84S
$$

WIZ011>013-019>022-031-037>040-048>050-261400-
NORTHEAST WISCONSIN

CITY           SKY/WX    TMP DP  RH WIND       PRES   REMARKS
ANTIGO         CLOUDY    65  64  97 W8        29.83S FOG
STURGEON BAY   PTSUNNY   66  63  88 SW8       29.81R
GREEN BAY      CLOUDY    68  63  84 SW8       29.82S
MANITOWOC      NOT AVBL
APPLETON       CLOUDY    66  63  88 SW10      29.85R
CLINTONVILLE   CLOUDY    66  63  88 SW8       29.83R
OSHKOSH        SUNNY     69  63  81 SW5       29.84R
$$

WIZ032>034-041-042-053>061-261400-
SOUTHWEST WISCONSIN

CITY           SKY/WX    TMP DP  RH WIND       PRES   REMARKS
LA CROSSE      CLOUDY    70  65  84 S7        29.84F
SPARTA         CLOUDY    67  64  89 SW3       29.86R
VIROQUA        CLOUDY    65  65 100 W5        29.88R
BOSCOBEL       CLOUDY    69  63  81 CALM      29.86R
PRAIRIE DU CHI CLOUDY    67  62  84 CALM      29.85R
PLATTEVILLE    PTSUNNY   66  63  88 CALM      29.86S
$$

WIZ056-057-062-063-064-067-068-261400-
SOUTH CENTRAL WISCONSIN

CITY           SKY/WX    TMP DP  RH WIND       PRES   REMARKS
BARABOO/DELLS  CLOUDY    67  60  79 SW5       29.85S
LONE ROCK      NOT AVBL
WATERTOWN      CLOUDY    65  62  89 CALM      29.86R
MADISON        PTSUNNY   71  62  73 SW5       29.85S
MIDDLETON      CLOUDY    69  61  74 CALM      29.86R
MONROE         CLOUDY    66  61  82 SW3       29.86R
JANESVILLE     NOT AVBL
$$

WIZ051-052-058>065-066-070>072-261400-
SOUTHEAST WISCONSIN

CITY           SKY/WX    TMP DP  RH WIND       PRES   REMARKS
MILWAUKEE      CLOUDY    67  60  78 S5        29.86R
WAUKESHA       PTSUNNY   63  59  88 SW5       29.86S
MILWAUKEE/TIMM CLOUDY    66  59  77 CALM      29.86R
RACINE         CLOUDY    67  60  78 CALM      29.87F
BURLINGTON     CLOUDY    64  62  91 CALM      29.85S
KENOSHA        CLOUDY    67  61  81 SE3       29.85F
FOND DU LAC    MOSUNNY   67  61  81 W3        29.85S
SHEBOYGAN      MOSUNNY   67  62  84 SW3       29.85S
WEST BEND      PTSUNNY   63  59  88 CALM      29.86R
JUNEAU         CLOUDY    64  60  89 CALM      29.87S
$$

LSZ147-162-261400-
LAKE SUPERIOR

STATION/POSITION TIME  TEMP    WIND        PRES    WAVE
                       AIR SEA DIR/SP/G            HT/PER
                 (UTC) (F)     (DEG/KT/KT) (MB)    (FT/S)
W MID LAKE BUOY  1150   55 47  200/  8/ 10 1006.0S   0
PORT WING        1200   70     230/  7/  8 1007.8R
SAXON HARBOR     1200          200/  5/ 11 1007.5S
$$

LMZ867-665-643>646-261400-
LAKE MICHIGAN

STATION/POSITION TIME  TEMP    WIND        PRES    WAVE
                       AIR SEA DIR/SP/G            HT/PER
                 (UTC) (F)     (DEG/KT/KT) (MB)    (FT/S)
N MID LAKE BUOY  1150   60 56  210/ 12/ 14 1008.4F   1/ 5
NORTHPORT PIER   1200   62     150/  3/  5 1008.8S
KEWAUNEE LAKESHO 1200   52     170/  4/  5 1010.6S
SHEBOYGAN LAKESH 1200   66     250/  7/  9 1010.7R
PORT WASHINGTON  1200   63     190/  4/  6 1011.5
ATWATER BUOY     1200   62     160/  6     1011.8S
MILWAUKEE LAKESH 1200   61     160/  7/  8   N/A
S MID LAKE BUOY  1150   63 61  170/  6/  6 1011.3R   1
KENOSHA   LAKESH 1200   61     360/  2/  3 1011.2S
$$

TC  - TEMPERATURE IN CELSIUS
VSB - VISIBILITY IN STATUTE MILES
WCI - WIND CHILL INDEX
HX  - HEAT INDEX




USA.gov is the U.S. government's official web portal to all federal, state and local government web resources and services.